CHINASAT 16 (SJ-13)

Last updated on Sun Apr 12 2026 00:02:54 GMT+0000 (Coordinated Universal Time)

1 42662U 17018A 26101.54253081 -.00000351 00000+0 00000+0 0 9993 2 42662 0.0981 85.2109 0004159 170.5465 249.7939 1.00274354 33085
UTC large
Height (km)
Speed (km/s)
/
Latitude / Longitude
Inclination (degrees)
Orbital Period (minutes)
Azimuth
Elevation
Range (km)
Doppler Factor

Next 0 passes for location: London (51.5072 / 0.1276)

Sorry there are no passes over London.